When you browse on this site, cookies collect data to enhance your experience and personalize the content and advertising you see.
Visit our Privacy Policy to learn more. By continuing to use the site, you agree to this use of cookies and data.
  • In Belgien
  • Länderverzeichnis
  • Für 7 Tage
  • Wassertemperatur
  • Satellitenkarten
  • Wetterkarte
  • Widgets
  • user-avatar
    Anmelden

    Stündliche Wetter Goldene Küste

    Heute, 16 Januar, Mittwoch

    Zeit Temperatur Niederschläge Wind Luftdruck Luftfeuchtigkeit
    00:00 +23°C° 0 mm 1 m/S 757 mmHg 86%
    01:00 +23°C° 0 mm 1 m/S 756 mmHg 87%
    02:00 +22°C° 0 mm 1 m/S 756 mmHg 87%
    03:00 +22°C° 0 mm 1 m/S 756 mmHg 88%
    04:00 +22°C° 0 mm 1 m/S 756 mmHg 88%
    05:00 +24°C° 0 mm 1 m/S 756 mmHg 82%
    06:00 +25°C° 0 mm 1 m/S 756 mmHg 76%
    07:00 +26°C° 0 mm 1 m/S 757 mmHg 69%
    08:00 +28°C° 0 mm 1 m/S 757 mmHg 61%
    09:00 +30°C° 0 mm 2 m/S 757 mmHg 52%
    10:00 +32°C° 0 mm 2 m/S 757 mmHg 43%
    11:00 +34°C° 0 mm 3 m/S 756 mmHg 41%
    12:00 +35°C° 0 mm 3 m/S 756 mmHg 38%
    13:00 +35°C° 0 mm 4 m/S 755 mmHg 36%
    14:00 +34°C° 0 mm 4 m/S 755 mmHg 41%
    15:00 +33°C° 0 mm 5 m/S 755 mmHg 46%
    16:00 +32°C° 0 mm 5 m/S 754 mmHg 52%
    17:00 +30°C° 0 mm 5 m/S 755 mmHg 62%
    18:00 +28°C° 0 mm 4 m/S 755 mmHg 73%
    19:00 +26°C° 0 mm 4 m/S 755 mmHg 83%
    20:00 +26°C° 0 mm 4 m/S 756 mmHg 83%
    21:00 +26°C° 0 mm 4 m/S 756 mmHg 83%
    22:00 +26°C° 0 mm 3 m/S 757 mmHg 83%
    23:00 +26°C° 0.1 mm 3 m/S 756 mmHg 84%

    Morgen, 17 Januar, Donnerstag

    Zeit Temperatur Niederschläge Wind Luftdruck Luftfeuchtigkeit
    00:00 +25°C° 0.1 mm 3 m/S 756 mmHg 86%
    01:00 +25°C° 0.1 mm 2 m/S 756 mmHg 87%
    02:00 +24°C° 0.1 mm 2 m/S 756 mmHg 88%
    03:00 +24°C° 0.1 mm 2 m/S 756 mmHg 90%
    04:00 +24°C° 0.1 mm 2 m/S 756 mmHg 91%
    05:00 +24°C° 0 mm 2 m/S 757 mmHg 87%
    06:00 +25°C° 0 mm 2 m/S 757 mmHg 83%
    07:00 +26°C° 0 mm 2 m/S 757 mmHg 80%
    08:00 +27°C° 0 mm 3 m/S 757 mmHg 73%
    09:00 +28°C° 0 mm 3 m/S 757 mmHg 66%
    10:00 +29°C° 0 mm 3 m/S 758 mmHg 60%
    11:00 +30°C° 0 mm 3 m/S 757 mmHg 55%
    12:00 +32°C° 0 mm 4 m/S 757 mmHg 50%
    13:00 +33°C° 0 mm 4 m/S 757 mmHg 46%
    14:00 +32°C° 0 mm 4 m/S 756 mmHg 47%
    15:00 +32°C° 0 mm 4 m/S 756 mmHg 48%
    16:00 +30°C° 0 mm 4 m/S 755 mmHg 49%
    17:00 +28°C° 0 mm 4 m/S 756 mmHg 56%
    18:00 +27°C° 0 mm 4 m/S 756 mmHg 63%
    19:00 +25°C° 0 mm 3 m/S 756 mmHg 70%
    20:00 +24°C° 0 mm 3 m/S 757 mmHg 74%
    21:00 +24°C° 0 mm 3 m/S 757 mmHg 78%
    22:00 +22°C° 0 mm 3 m/S 758 mmHg 81%
    23:00 +22°C° 0 mm 3 m/S 758 mmHg 82%

    übermorgen, 18 Januar, Freitag

    Zeit Temperatur Niederschläge Wind Luftdruck Luftfeuchtigkeit
    00:00 +22°C° 0 mm 3 m/S 757 mmHg 83%
    01:00 +23°C° 0 mm 2 m/S 757 mmHg 83%
    02:00 +22°C° 0 mm 3 m/S 757 mmHg 82%
    03:00 +24°C° 0 mm 3 m/S 757 mmHg 80%
    04:00 +24°C° 0 mm 3 m/S 757 mmHg 79%
    05:00 +25°C° 0 mm 3 m/S 757 mmHg 75%
    06:00 +26°C° 0 mm 3 m/S 758 mmHg 70%
    07:00 +27°C° 0 mm 3 m/S 758 mmHg 66%
    08:00 +28°C° 0 mm 3 m/S 758 mmHg 62%
    09:00 +29°C° 0 mm 3 m/S 758 mmHg 58%
    10:00 +30°C° 0 mm 3 m/S 758 mmHg 54%
    11:00 +31°C° 0 mm 3 m/S 758 mmHg 51%
    12:00 +33°C° 0 mm 3 m/S 758 mmHg 48%
    13:00 +34°C° 0 mm 4 m/S 757 mmHg 45%
    14:00 +33°C° 0 mm 4 m/S 757 mmHg 48%
    15:00 +32°C° 0 mm 4 m/S 757 mmHg 51%
    16:00 +32°C° 0 mm 4 m/S 756 mmHg 54%
    17:00 +29°C° 0 mm 4 m/S 757 mmHg 62%
    18:00 +27°C° 0 mm 3 m/S 757 mmHg 69%
    19:00 +25°C° 0 mm 3 m/S 758 mmHg 77%
    20:00 +25°C° 0 mm 3 m/S 758 mmHg 80%
    21:00 +24°C° 0 mm 3 m/S 759 mmHg 84%
    22:00 +24°C° 0 mm 3 m/S 759 mmHg 88%
    23:00 +24°C° 0 mm 3 m/S 759 mmHg 87%

    19 Januar, Samstag

    Zeit Temperatur Niederschläge Wind Luftdruck Luftfeuchtigkeit
    00:00 +24°C° 0 mm 3 m/S 758 mmHg 85%
    01:00 +25°C° 0 mm 3 m/S 758 mmHg 84%
    02:00 +24°C° 0 mm 3 m/S 758 mmHg 86%
    03:00 +24°C° 0 mm 2 m/S 758 mmHg 87%
    04:00 +24°C° 0 mm 2 m/S 758 mmHg 88%
    05:00 +25°C° 0 mm 2 m/S 758 mmHg 84%
    06:00 +26°C° 0 mm 1 m/S 759 mmHg 79%
    07:00 +27°C° 0 mm 1 m/S 760 mmHg 74%
    08:00 +28°C° 0 mm 1 m/S 760 mmHg 65%
    09:00 +30°C° 0 mm 2 m/S 759 mmHg 57%
    10:00 +32°C° 0 mm 2 m/S 759 mmHg 48%
    11:00 +34°C° 0 mm 3 m/S 759 mmHg 46%
    12:00 +34°C° 0 mm 3 m/S 758 mmHg 44%
    13:00 +35°C° 0 mm 4 m/S 758 mmHg 42%
    14:00 +34°C° 0 mm 4 m/S 757 mmHg 46%
    15:00 +33°C° 0 mm 4 m/S 757 mmHg 50%
    16:00 +32°C° 0 mm 4 m/S 757 mmHg 54%
    17:00 +30°C° 0 mm 3 m/S 757 mmHg 63%
    18:00 +28°C° 0 mm 3 m/S 757 mmHg 71%
    19:00 +26°C° 0 mm 3 m/S 758 mmHg 80%
    20:00 +25°C° 0 mm 3 m/S 758 mmHg 84%
    21:00 +24°C° 0 mm 2 m/S 759 mmHg 87%
    22:00 +24°C° 0 mm 2 m/S 759 mmHg 91%
    23:00 +24°C° 0 mm 2 m/S 759 mmHg 91%

    20 Januar, Sonntag

    Zeit Temperatur Niederschläge Wind Luftdruck Luftfeuchtigkeit
    00:00 +23°C° 0 mm 1 m/S 759 mmHg 92%
    01:00 +23°C° 0 mm 1 m/S 758 mmHg 92%
    02:00 +23°C° 0 mm 1 m/S 758 mmHg 92%
    03:00 +23°C° 0 mm 1 m/S 759 mmHg 93%
    04:00 +21°C° 0 mm 0 m/S 759 mmHg 93%
    05:00 +24°C° 0 mm 1 m/S 759 mmHg 88%
    06:00 +25°C° 0 mm 1 m/S 760 mmHg 83%
    07:00 +26°C° 0 mm 1 m/S 760 mmHg 78%
    08:00 +28°C° 0 mm 2 m/S 760 mmHg 69%
    09:00 +30°C° 0 mm 3 m/S 760 mmHg 60%
    10:00 +31°C° 0 mm 3 m/S 760 mmHg 50%
    11:00 +33°C° 0 mm 3 m/S 760 mmHg 49%
    12:00 +33°C° 0 mm 4 m/S 759 mmHg 48%
    13:00 +34°C° 0 mm 4 m/S 759 mmHg 46%
    14:00 +33°C° 0 mm 4 m/S 759 mmHg 49%
    15:00 +32°C° 0 mm 4 m/S 758 mmHg 52%
    16:00 +32°C° 0 mm 4 m/S 758 mmHg 55%
    17:00 +29°C° 0 mm 4 m/S 759 mmHg 62%
    18:00 +27°C° 0 mm 3 m/S 759 mmHg 69%
    19:00 +26°C° 0 mm 3 m/S 760 mmHg 77%
    20:00 +25°C° 0 mm 3 m/S 760 mmHg 80%
    21:00 +25°C° 0 mm 3 m/S 760 mmHg 84%
    22:00 +24°C° 0 mm 3 m/S 760 mmHg 87%
    23:00 +24°C° 0 mm 3 m/S 760 mmHg 87%

    21 Januar, Montag

    Zeit Temperatur Niederschläge Wind Luftdruck Luftfeuchtigkeit
    00:00 +24°C° 0 mm 3 m/S 759 mmHg 86%
    01:00 +25°C° 0 mm 3 m/S 759 mmHg 86%
    02:00 +25°C° 0 mm 3 m/S 759 mmHg 85%
    03:00 +25°C° 0 mm 2 m/S 758 mmHg 85%
    04:00 +25°C° 0 mm 2 m/S 758 mmHg 84%
    05:00 +25°C° 0 mm 2 m/S 759 mmHg 82%
    06:00 +26°C° 0 mm 2 m/S 759 mmHg 79%
    07:00 +26°C° 0 mm 2 m/S 760 mmHg 76%
    08:00 +28°C° 0 mm 3 m/S 760 mmHg 70%
    09:00 +29°C° 0 mm 3 m/S 760 mmHg 64%
    10:00 +30°C° 0 mm 3 m/S 759 mmHg 59%
    11:00 +31°C° 0 mm 3 m/S 759 mmHg 56%
    12:00 +32°C° 0 mm 4 m/S 759 mmHg 54%
    13:00 +33°C° 0 mm 4 m/S 758 mmHg 51%
    14:00 +32°C° 0 mm 4 m/S 758 mmHg 53%
    15:00 +32°C° 0 mm 4 m/S 758 mmHg 55%
    16:00 +30°C° 0 mm 4 m/S 758 mmHg 57%
    17:00 +29°C° 0 mm 4 m/S 758 mmHg 64%
    18:00 +27°C° 0 mm 3 m/S 758 mmHg 71%
    19:00 +26°C° 0 mm 3 m/S 759 mmHg 78%
    20:00 +25°C° 0.1 mm 3 m/S 759 mmHg 82%
    21:00 +25°C° 0.1 mm 3 m/S 759 mmHg 85%
    22:00 +24°C° 0.1 mm 3 m/S 760 mmHg 89%
    23:00 +24°C° 0.1 mm 2 m/S 759 mmHg 89%
    Mehr zeigen